Regional Weather Roundup
Issued by NWS Cleveland, OH

Home | Current Version | Previous Version | Text Only | Print | Product List | Glossary Off
Versions: 1 2 3 4 5 6 7 8 9 10 11 12 13 14 15 16 17 18 19 20 21 22 23 24 25 26 27 28 29 30 31 32 33 34 35 36 37 38 39 40 41 42 43 44 45 46 47 48 49 50

000
ASUS41 KCLE 060300
RWRCLE
OHIO REGIONAL WEATHER ROUNDUP
NATIONAL WEATHER SERVICE WILMINGTON, OH
1100 PM EDT TUE MAY 05 2015

NOTE: "FAIR" INDICATES FEW OR NO CLOUDS BELOW 12,000 FEET WITH NO
SIGNIFICANT WEATHER AND/OR OBSTRUCTIONS TO VISIBILITY.

OHZ001>008-015>018-024>027-034-035-043-044-060400-
   NORTHWEST OHIO

CITY           SKY/WX    TMP DP  RH WIND       PRES   REMARKS
DEFIANCE       MOCLDY    53  49  86 E8        30.25R
FINDLAY        CLOUDY    54  51  90 NE12      30.23S FOG
TOLEDO EXPRESS CLOUDY    52  50  93 E8        30.25F FOG
TOLEDO EXEC    LGT RAIN  52  49  89 E7        30.26F
LIMA           CLEAR     54  51  90 NE9       30.23R FOG
$$

OHZ009>014-019>023-028>033-038-089-060400-
   NORTHEAST OHIO

CITY           SKY/WX    TMP DP  RH WIND       PRES   REMARKS
CLE-HOPKINS    LGT RAIN  54  51  90 VRB5      30.27R FOG
CLE-LAKEFRONT  HVY RAIN  52  50  93 NE12      30.23F FOG
CUY CO. ARPT   CLOUDY    57  55  94 E7        30.25S FOG
LORAIN-ELYRIA  MOCLDY    52  49  89 NE8G22    30.27R FOG
ASHTABULA      LGT RAIN  53  51  93 N3        30.27S FOG
AKRON-CANTON   PTCLDY    60  56  86 NE7       30.23S FOG
WOOSTER        NOT AVBL
MANSFIELD      PTCLDY    56  55  97 NE3       30.24R FOG
YOUNGSTOWN     CLOUDY    61  59  93 NE5       30.25R FOG
$$

OHZ042-051>053-060>062-070>072-077>081-060400-
  SOUTHWEST OHIO

CITY           SKY/WX    TMP DP  RH WIND       PRES   REMARKS
CINC-COVINGTON CLEAR     69  53  56 S3        30.21R
CINC-LUNKEN    CLEAR     62  57  83 CALM      30.20S
HAMILTON       CLEAR     63  57  81 CALM      30.20R
DAYTON         NOT AVBL
WRIGHT-PAT AFB NOT AVBL
DAYTON GENERAL CLEAR     68  53  58 S5        30.20R
WILMINGTON     CLEAR     66  52  60 CALM      30.21S
$$

OHZ036-037-039>041-045>050-054>059-063>069-073>076-082>088-060400-
  CENTRAL AND SOUTHEAST OHIO

CITY           SKY/WX    TMP DP  RH WIND       PRES   REMARKS
COLUMBUS       PTCLDY    68  56  65 CALM      30.19S
OSU AIRPORT    CLEAR     67  55  65 S3        30.20R
BOLTON FIELD   NOT AVBL
RICKENBACK AFB NOT AVBL
NEWARK         CLEAR     64  58  80 CALM      30.20R
MARION         CLEAR     57  54  89 N8        30.22S FOG
LANCASTER      CLEAR     61  53  75 CALM      30.20S
ZANESVILLE     CLEAR     65  57  75 CALM      30.20S
NEW PHILLY     CLEAR     63  59  87 CALM      30.23R FOG
$$



USA.gov is the U.S. government's official web portal to all federal, state and local government web resources and services.